Time,TemperatureF,DewpointF,PressureIn,WindDirection,WindDirectionDegrees,WindSpeedMPH,WindSpeedGustMPH,Humidity,HourlyPrecipIn,Conditions,Clouds,dailyrainin,SolarRadiationWatts/m^2,SoftwareType,DateUTC
2013-01-11 00:00:00,38.3,28.7,30.54,NE,48,2.0,7.0,68,0.00,,BKN230,0.00,0.00,VWS V14.01,2013-01-11 05:00:00,
2013-01-11 00:02:00,38.2,28.6,30.54,NE,48,2.0,2.0,68,0.00,,BKN230,0.00,0.00,VWS V14.01,2013-01-11 05:02:00,
2013-01-11 00:03:00,38.2,28.6,30.54,NE,48,2.0,2.0,68,0.00,,BKN230,0.00,0.00,VWS V14.01,2013-01-11 05:03:00,
2013-01-11 00:08:00,38.1,28.5,30.54,NE,48,1.0,3.0,68,0.00,,BKN230,0.00,0.00,VWS V14.01,2013-01-11 05:08:00,
2013-01-11 00:13:00,38.0,28.4,30.54,NNE,15,3.0,4.0,68,0.00,,BKN230,0.00,0.00,VWS V14.01,2013-01-11 05:13:00,
2013-01-11 00:18:00,37.9,28.3,30.54,NNE,20,1.0,5.0,68,0.00,,BKN230,0.00,0.00,VWS V14.01,2013-01-11 05:18:00,
2013-01-11 00:23:00,37.9,28.6,30.54,East,85,1.0,5.0,69,0.00,,BKN230,0.00,0.00,VWS V14.01,2013-01-11 05:23:00,
2013-01-11 00:28:00,37.8,28.2,30.54,East,85,1.0,5.0,68,0.00,,BKN230,0.00,0.00,VWS V14.01,2013-01-11 05:28:00,
2013-01-11 00:30:00,37.8,28.2,30.54,East,85,0.0,5.0,68,0.00,,OVC250,0.00,0.00,VWS V14.01,2013-01-11 05:30:00,
2013-01-11 00:33:00,37.8,28.2,30.54,East,85,0.0,1.0,68,0.00,,BKN230,0.00,0.00,VWS V14.01,2013-01-11 05:33:00,
2013-01-11 00:38:00,37.8,28.2,30.53,ENE,63,2.0,3.0,68,0.00,,BKN230,0.00,0.00,VWS V14.01,2013-01-11 05:38:00,
2013-01-11 00:43:00,37.7,28.1,30.53,ENE,63,0.0,3.0,68,0.00,,BKN230,0.00,0.00,VWS V14.01,2013-01-11 05:43:00,
2013-01-11 00:48:00,37.7,28.5,30.54,ENE,63,0.0,3.0,69,0.00,,BKN230,0.00,0.00,VWS V14.01,2013-01-11 05:48:00,
2013-01-11 00:53:00,37.7,28.5,30.53,ENE,63,0.0,3.0,69,0.00,,BKN230,0.00,0.00,VWS V14.01,2013-01-11 05:53:00,
2013-01-11 00:58:00,37.5,28.3,30.54,East,85,1.0,3.0,69,0.00,,BKN230,0.00,0.00,VWS V14.01,2013-01-11 05:58:00,
2013-01-11 01:00:00,37.3,28.1,30.54,East,85,0.0,3.0,69,0.00,,OVC250,0.00,0.00,VWS V14.01,2013-01-11 06:00:00,
2013-01-11 01:03:00,37.1,27.9,30.53,East,85,0.0,1.0,69,0.00,,BKN250,0.00,0.00,VWS V14.01,2013-01-11 06:03:00,
2013-01-11 01:08:00,36.9,28.0,30.52,East,84,0.0,1.0,70,0.00,,BKN250,0.00,0.00,VWS V14.01,2013-01-11 06:08:00,
2013-01-11 01:13:00,36.6,28.4,30.53,East,96,0.0,1.0,72,0.00,,BKN250,0.00,0.00,VWS V14.01,2013-01-11 06:13:00,
2013-01-11 01:18:00,36.4,27.9,30.53,East,96,0.0,1.0,71,0.00,,BKN250,0.00,0.00,VWS V14.01,2013-01-11 06:18:00,
2013-01-11 01:23:00,36.1,27.6,30.52,NNE,31,2.0,3.0,71,0.00,,BKN250,0.00,0.00,VWS V14.01,2013-01-11 06:23:00,
2013-01-11 01:28:00,35.9,28.1,30.52,SSE,151,0.0,3.0,73,0.00,,BKN250,0.00,0.00,VWS V14.01,2013-01-11 06:28:00,
2013-01-11 01:30:00,35.8,28.0,30.52,SSE,151,0.0,3.0,73,0.00,,OVC250,0.00,0.00,VWS V14.01,2013-01-11 06:30:00,
2013-01-11 01:33:00,35.6,27.8,30.52,SSE,153,2.0,3.0,73,0.00,,CLR,0.00,0.00,VWS V14.01,2013-01-11 06:33:00,
2013-01-11 01:38:00,35.3,27.5,30.53,SSW,201,3.0,3.0,73,0.00,,CLR,0.00,0.00,VWS V14.01,2013-01-11 06:38:00,
2013-01-11 01:43:00,35.2,28.1,30.53,SSW,201,0.0,3.0,75,0.00,,CLR,0.00,0.00,VWS V14.01,2013-01-11 06:43:00,
2013-01-11 01:48:00,34.9,27.8,30.52,SSW,202,0.0,3.0,75,0.00,,CLR,0.00,0.00,VWS V14.01,2013-01-11 06:48:00,
2013-01-11 01:53:00,34.8,28.0,30.52,SSW,201,0.0,3.0,76,0.00,,CLR,0.00,0.00,VWS V14.01,2013-01-11 06:53:00,
2013-01-11 01:58:00,34.5,27.7,30.52,SSW,202,2.0,3.0,76,0.00,,CLR,0.00,0.00,VWS V14.01,2013-01-11 06:58:00,
2013-01-11 02:00:00,34.4,27.6,30.52,SSW,202,1.0,3.0,76,0.00,,OVC250,0.00,0.00,VWS V14.01,2013-01-11 07:00:00,
2013-01-11 02:03:00,34.3,27.9,30.52,SSW,202,0.0,2.0,77,0.00,,SCT250,0.00,0.00,VWS V14.01,2013-01-11 07:03:00,
2013-01-11 02:08:00,34.5,28.0,30.52,SSW,201,1.0,2.0,77,0.00,,SCT250,0.00,0.00,VWS V14.01,2013-01-11 07:08:00,
2013-01-11 02:13:00,34.5,28.0,30.52,WSW,247,1.0,3.0,77,0.00,,SCT250,0.00,0.00,VWS V14.01,2013-01-11 07:13:00,
2013-01-11 02:18:00,34.3,27.5,30.51,WSW,247,1.0,3.0,76,0.00,,SCT250,0.00,0.00,VWS V14.01,2013-01-11 07:18:00,
2013-01-11 02:23:00,34.1,27.7,30.51,WSW,246,1.0,3.0,77,0.00,,SCT250,0.00,0.00,VWS V14.01,2013-01-11 07:23:00,
2013-01-11 02:28:00,33.9,27.5,30.51,WSW,246,0.0,3.0,77,0.00,,SCT250,0.00,0.00,VWS V14.01,2013-01-11 07:28:00,
2013-01-11 02:30:00,33.7,27.3,30.51,WSW,246,0.0,3.0,77,0.00,,OVC250,0.00,0.00,VWS V14.01,2013-01-11 07:30:00,
2013-01-11 02:33:00,33.7,27.6,30.51,WSW,246,0.0,1.0,78,0.00,,BKN250,0.00,0.00,VWS V14.01,2013-01-11 07:33:00,
2013-01-11 02:38:00,33.5,27.4,30.51,WSW,246,0.0,2.0,78,0.00,,BKN250,0.00,0.00,VWS V14.01,2013-01-11 07:38:00,
2013-01-11 02:43:00,33.3,27.2,30.52,WSW,246,0.0,2.0,78,0.00,,BKN250,0.00,0.00,VWS V14.01,2013-01-11 07:43:00,
2013-01-11 02:48:00,33.3,27.5,30.51,WSW,246,0.0,2.0,79,0.00,,BKN250,0.00,0.00,VWS V14.01,2013-01-11 07:48:00,
2013-01-11 02:53:00,33.4,27.9,30.51,South,191,1.0,3.0,80,0.00,,BKN250,0.00,0.00,VWS V14.01,2013-01-11 07:53:00,
2013-01-11 02:58:00,33.2,27.4,30.51,WNW,289,2.0,3.0,79,0.00,,BKN250,0.00,0.00,VWS V14.01,2013-01-11 07:58:00,
2013-01-11 03:00:00,32.9,27.1,30.51,SSW,196,0.0,3.0,79,0.00,,OVC250,0.00,0.00,VWS V14.01,2013-01-11 08:00:00,
2013-01-11 03:03:00,32.9,27.4,30.51,SSW,196,0.0,0.0,80,0.00,,BKN250,0.00,0.00,VWS V14.01,2013-01-11 08:03:00,
2013-01-11 03:08:00,32.6,27.1,30.50,SSW,196,0.0,2.0,80,0.00,,BKN250,0.00,0.00,VWS V14.01,2013-01-11 08:08:00,
2013-01-11 03:13:00,32.4,26.9,30.50,SSW,196,0.0,2.0,80,0.00,,BKN250,0.00,0.00,VWS V14.01,2013-01-11 08:13:00,
2013-01-11 03:18:00,32.2,26.7,30.50,SSW,196,0.0,2.0,80,0.00,,BKN250,0.00,0.00,VWS V14.01,2013-01-11 08:18:00,
2013-01-11 03:23:00,32.1,26.9,30.50,SSW,196,0.0,2.0,81,0.00,,BKN250,0.00,0.00,VWS V14.01,2013-01-11 08:23:00,
2013-01-11 03:28:00,31.9,26.7,30.50,SSW,196,0.0,2.0,81,0.00,,BKN250,0.00,0.00,VWS V14.01,2013-01-11 08:28:00,
2013-01-11 03:30:00,31.9,26.7,30.50,SSW,196,0.0,2.0,81,0.00,,OVC250,0.00,0.00,VWS V14.01,2013-01-11 08:30:00,
2013-01-11 03:33:00,32.0,27.1,30.51,SSW,196,1.0,1.0,82,0.00,,BKN250,0.00,0.00,VWS V14.01,2013-01-11 08:33:00,
2013-01-11 03:38:00,32.0,27.1,30.50,SSW,208,1.0,3.0,82,0.00,,BKN250,0.00,0.00,VWS V14.01,2013-01-11 08:38:00,
2013-01-11 03:43:00,32.0,27.1,30.50,SSW,209,1.0,3.0,82,0.00,,BKN250,0.00,0.00,VWS V14.01,2013-01-11 08:43:00,
2013-01-11 03:48:00,32.2,27.6,30.49,SSW,209,0.0,3.0,83,0.00,,BKN250,0.00,0.00,VWS V14.01,2013-01-11 08:48:00,
2013-01-11 03:53:00,32.3,27.4,30.49,SSW,209,0.0,3.0,82,0.00,,BKN250,0.00,0.00,VWS V14.01,2013-01-11 08:53:00,
2013-01-11 03:58:00,32.4,27.8,30.48,SSW,209,0.0,3.0,83,0.00,,BKN250,0.00,0.00,VWS V14.01,2013-01-11 08:58:00,
2013-01-11 04:00:00,32.6,28.0,30.48,SE,135,0.0,3.0,83,0.00,,OVC250,0.00,0.00,VWS V14.01,2013-01-11 09:00:00,
2013-01-11 04:03:00,32.8,27.9,30.48,SE,135,0.0,1.0,82,0.00,,BKN250,0.00,0.00,VWS V14.01,2013-01-11 09:03:00,
2013-01-11 04:08:00,32.9,28.0,30.47,SE,135,0.0,1.0,82,0.00,,BKN250,0.00,0.00,VWS V14.01,2013-01-11 09:08:00,
2013-01-11 04:13:00,33.2,28.0,30.47,SE,135,1.0,2.0,81,0.00,,BKN250,0.00,0.00,VWS V14.01,2013-01-11 09:13:00,
2013-01-11 04:18:00,33.6,28.4,30.47,SE,130,0.0,5.0,81,0.00,,BKN250,0.00,0.00,VWS V14.01,2013-01-11 09:18:00,
2013-01-11 04:23:00,34.0,28.5,30.47,East,91,0.0,5.0,80,0.00,,BKN250,0.00,0.00,VWS V14.01,2013-01-11 09:23:00,
2013-01-11 04:28:00,34.4,28.6,30.47,East,81,3.0,5.0,79,0.00,,BKN250,0.00,0.00,VWS V14.01,2013-01-11 09:28:00,
2013-01-11 04:30:00,34.6,28.8,30.47,East,88,0.0,5.0,79,0.00,,OVC250,0.00,0.00,VWS V14.01,2013-01-11 09:30:00,
2013-01-11 04:33:00,34.6,28.8,30.47,East,88,1.0,1.0,79,0.00,,BKN250,0.00,0.00,VWS V14.01,2013-01-11 09:33:00,
2013-01-11 04:38:00,34.9,28.8,30.47,East,88,0.0,1.0,78,0.00,,BKN250,0.00,0.00,VWS V14.01,2013-01-11 09:38:00,
2013-01-11 04:43:00,35.1,28.9,30.46,East,88,0.0,1.0,78,0.00,,BKN250,0.00,0.00,VWS V14.01,2013-01-11 09:43:00,
2013-01-11 04:48:00,35.1,28.6,30.47,East,88,0.0,1.0,77,0.00,,BKN250,0.00,0.00,VWS V14.01,2013-01-11 09:48:00,
2013-01-11 04:53:00,34.8,28.3,30.46,East,88,0.0,2.0,77,0.00,,BKN250,0.00,0.00,VWS V14.01,2013-01-11 09:53:00,
2013-01-11 04:58:00,34.6,28.5,30.46,East,88,0.0,2.0,78,0.00,,BKN250,0.00,0.00,VWS V14.01,2013-01-11 09:58:00,
2013-01-11 05:00:00,34.5,28.4,30.46,East,88,0.0,2.0,78,0.00,,OVC250,0.00,0.00,VWS V14.01,2013-01-11 10:00:00,
2013-01-11 05:03:00,34.5,28.4,30.45,East,88,0.0,1.0,78,0.00,,BKN250,0.00,0.00,VWS V14.01,2013-01-11 10:03:00,
2013-01-11 05:08:00,34.7,28.9,30.46,East,88,0.0,1.0,79,0.00,,BKN250,0.00,0.00,VWS V14.01,2013-01-11 10:08:00,
2013-01-11 05:13:00,34.6,28.5,30.46,East,88,0.0,1.0,78,0.00,,BKN250,0.00,0.00,VWS V14.01,2013-01-11 10:13:00,
2013-01-11 05:18:00,34.6,28.5,30.47,East,88,0.0,1.0,78,0.00,,BKN250,0.00,0.00,VWS V14.01,2013-01-11 10:18:00,
2013-01-11 05:23:00,34.5,28.7,30.46,East,88,0.0,1.0,79,0.00,,BKN250,0.00,0.00,VWS V14.01,2013-01-11 10:23:00,
2013-01-11 05:28:00,34.4,28.6,30.47,East,88,0.0,1.0,79,0.00,,BKN250,0.00,0.00,VWS V14.01,2013-01-11 10:28:00,
2013-01-11 05:30:00,34.4,28.6,30.47,East,88,0.0,1.0,79,0.00,,OVC250,0.00,0.00,VWS V14.01,2013-01-11 10:30:00,
2013-01-11 05:33:00,34.4,28.6,30.47,East,88,0.0,0.0,79,0.00,,BKN250,0.00,0.00,VWS V14.01,2013-01-11 10:33:00,
2013-01-11 05:38:00,34.3,28.5,30.47,East,88,1.0,1.0,79,0.00,,BKN250,0.00,0.00,VWS V14.01,2013-01-11 10:38:00,
2013-01-11 05:43:00,34.3,28.8,30.46,East,88,0.0,2.0,80,0.00,,BKN250,0.00,0.00,VWS V14.01,2013-01-11 10:43:00,
2013-01-11 05:48:00,34.6,29.1,30.45,East,88,0.0,2.0,80,0.00,,BKN250,0.00,0.00,VWS V14.01,2013-01-11 10:48:00,
2013-01-11 05:53:00,34.7,29.2,30.46,East,88,1.0,2.0,80,0.00,,BKN250,0.00,0.00,VWS V14.01,2013-01-11 10:53:00,
2013-01-11 05:58:00,34.8,29.0,30.46,East,88,0.0,3.0,79,0.00,,BKN250,0.00,0.00,VWS V14.01,2013-01-11 10:58:00,
2013-01-11 06:00:00,34.8,29.3,30.47,East,88,0.0,3.0,80,0.00,,OVC250,0.00,0.00,VWS V14.01,2013-01-11 11:00:00,
2013-01-11 06:03:00,34.8,29.3,30.47,East,88,0.0,0.0,80,0.00,,BKN250,0.00,0.00,VWS V14.01,2013-01-11 11:03:00,
2013-01-11 06:08:00,34.8,29.3,30.45,East,88,2.0,2.0,80,0.00,,BKN250,0.00,0.00,VWS V14.01,2013-01-11 11:08:00,
2013-01-11 06:13:00,35.0,29.5,30.46,East,88,0.0,3.0,80,0.00,,BKN250,0.00,0.00,VWS V14.01,2013-01-11 11:13:00,
2013-01-11 06:18:00,35.1,29.3,30.47,East,88,1.0,3.0,79,0.00,,BKN250,0.00,0.00,VWS V14.01,2013-01-11 11:18:00,
2013-01-11 06:23:00,35.0,29.2,30.47,East,88,0.0,3.0,79,0.00,,BKN250,0.00,0.00,VWS V14.01,2013-01-11 11:23:00,
2013-01-11 06:28:00,35.0,29.5,30.47,East,88,0.0,3.0,80,0.00,,BKN250,0.00,0.00,VWS V14.01,2013-01-11 11:28:00,
2013-01-11 06:30:00,35.0,29.5,30.47,East,88,0.0,3.0,80,0.00,,OVC250,0.00,0.00,VWS V14.01,2013-01-11 11:30:00,
2013-01-11 06:33:00,35.0,29.5,30.47,East,88,0.0,0.0,80,0.00,,BKN250,0.00,0.00,VWS V14.01,2013-01-11 11:33:00,
2013-01-11 06:38:00,35.0,29.5,30.47,East,88,0.0,1.0,80,0.00,,BKN250,0.00,0.00,VWS V14.01,2013-01-11 11:38:00,
2013-01-11 06:43:00,35.2,29.7,30.47,East,88,1.0,1.0,80,0.00,,BKN250,0.00,0.00,VWS V14.01,2013-01-11 11:43:00,
2013-01-11 06:48:00,35.4,29.9,30.47,East,88,0.0,1.0,80,0.00,,BKN250,0.00,0.00,VWS V14.01,2013-01-11 11:48:00,
2013-01-11 06:53:00,35.4,29.5,30.48,East,88,1.0,1.0,79,0.00,,BKN250,0.00,0.00,VWS V14.01,2013-01-11 11:53:00,
2013-01-11 06:58:00,35.4,29.9,30.48,East,89,0.0,2.0,80,0.00,,BKN250,0.00,0.00,VWS V14.01,2013-01-11 11:58:00,
2013-01-11 07:00:00,35.4,29.5,30.48,East,89,0.0,2.0,79,0.00,,OVC250,0.00,0.00,VWS V14.01,2013-01-11 12:00:00,
2013-01-11 07:03:00,35.4,29.5,30.47,East,89,0.0,0.0,79,0.00,,BKN250,0.00,0.00,VWS V14.01,2013-01-11 12:03:00,
2013-01-11 07:08:00,35.4,29.9,30.48,East,89,0.0,1.0,80,0.00,,BKN250,0.00,0.00,VWS V14.01,2013-01-11 12:08:00,
2013-01-11 07:13:00,35.4,29.9,30.48,East,89,0.0,2.0,80,0.00,,BKN250,0.00,0.00,VWS V14.01,2013-01-11 12:13:00,
2013-01-11 07:18:00,35.4,30.2,30.48,East,89,0.0,2.0,81,0.00,,BKN250,0.00,0.00,VWS V14.01,2013-01-11 12:18:00,
2013-01-11 07:23:00,35.6,30.4,30.49,East,89,0.0,2.0,81,0.00,,BKN250,0.00,0.00,VWS V14.01,2013-01-11 12:23:00,
2013-01-11 07:28:00,35.6,30.0,30.49,East,89,0.0,2.0,80,0.00,,BKN250,0.00,0.00,VWS V14.01,2013-01-11 12:28:00,
2013-01-11 07:30:00,35.7,30.1,30.49,East,89,0.0,2.0,80,0.00,,OVC250,0.00,5.00,VWS V14.01,2013-01-11 12:30:00,
2013-01-11 07:33:00,35.7,30.1,30.49,East,89,0.0,0.0,80,0.00,,OVC140,0.00,5.00,VWS V14.01,2013-01-11 12:33:00,
2013-01-11 07:38:00,35.8,30.2,30.49,East,89,0.0,0.0,80,0.00,,OVC140,0.00,11.00,VWS V14.01,2013-01-11 12:38:00,
2013-01-11 07:43:00,35.7,30.1,30.49,East,89,0.0,0.0,80,0.00,,OVC140,0.00,16.00,VWS V14.01,2013-01-11 12:43:00,
2013-01-11 07:47:00,36.2,30.9,30.49,East,89,0.0,1.0,81,0.00,,OVC140,0.00,23.00,VWS V14.01,2013-01-11 12:47:00,
2013-01-11 07:53:00,36.1,30.5,30.49,East,89,0.0,1.0,80,0.00,,OVC140,0.00,26.00,VWS V14.01,2013-01-11 12:53:00,
2013-01-11 07:58:00,36.1,30.8,30.49,East,89,0.0,1.0,81,0.00,,OVC140,0.00,28.00,VWS V14.01,2013-01-11 12:58:00,
2013-01-11 08:00:00,36.1,30.8,30.50,East,89,0.0,1.0,81,0.00,,OVC250,0.00,28.00,VWS V14.01,2013-01-11 13:00:00,
2013-01-11 08:03:00,36.1,30.8,30.49,East,89,0.0,0.0,81,0.00,,OVC140,0.00,30.00,VWS V14.01,2013-01-11 13:03:00,
2013-01-11 08:08:00,36.0,30.4,30.49,East,89,0.0,0.0,80,0.00,,OVC140,0.00,35.00,VWS V14.01,2013-01-11 13:08:00,
2013-01-11 08:13:00,36.2,30.9,30.49,East,89,1.0,2.0,81,0.00,,OVC140,0.00,37.00,VWS V14.01,2013-01-11 13:13:00,
2013-01-11 08:17:00,36.2,30.9,30.48,East,89,0.0,2.0,81,0.00,,OVC140,0.00,42.00,VWS V14.01,2013-01-11 13:17:00,
2013-01-11 08:22:00,36.2,30.6,30.48,East,89,1.0,2.0,80,0.00,,OVC140,0.00,47.00,VWS V14.01,2013-01-11 13:22:00,
2013-01-11 08:27:00,36.3,30.7,30.48,East,97,1.0,3.0,80,0.00,,OVC140,0.00,51.00,VWS V14.01,2013-01-11 13:27:00,
2013-01-11 08:30:00,36.5,30.9,30.47,ESE,117,1.0,4.0,80,0.00,,OVC250,0.00,51.00,VWS V14.01,2013-01-11 13:30:00,
2013-01-11 08:32:00,36.6,30.7,30.48,ESE,121,1.0,3.0,79,0.00,,OVC200,0.00,51.00,VWS V14.01,2013-01-11 13:32:00,
2013-01-11 08:37:00,36.8,30.9,30.47,SSE,148,0.0,4.0,79,0.00,,OVC200,0.00,58.00,VWS V14.01,2013-01-11 13:37:00,
2013-01-11 08:42:00,36.9,30.7,30.47,SSE,148,0.0,4.0,78,0.00,,OVC200,0.00,72.00,VWS V14.01,2013-01-11 13:42:00,
2013-01-11 08:47:00,37.1,30.9,30.47,SSW,192,1.0,4.0,78,0.00,,OVC200,0.00,86.00,VWS V14.01,2013-01-11 13:47:00,
2013-01-11 08:52:00,37.3,31.1,30.46,East,96,1.0,4.0,78,0.00,,OVC200,0.00,88.00,VWS V14.01,2013-01-11 13:52:00,
2013-01-11 08:57:00,37.4,31.2,30.47,East,94,1.0,7.0,78,0.00,,OVC200,0.00,91.00,VWS V14.01,2013-01-11 13:57:00,
2013-01-11 09:00:00,37.8,31.6,30.47,SE,142,3.0,7.0,78,0.00,,OVC250,0.00,90.00,VWS V14.01,2013-01-11 14:00:00,
2013-01-11 09:02:00,38.0,31.4,30.47,ESE,118,4.0,5.0,77,0.00,,OVC200,0.00,90.00,VWS V14.01,2013-01-11 14:02:00,
2013-01-11 09:07:00,38.2,31.3,30.47,SSE,157,0.0,5.0,76,0.00,,OVC200,0.00,90.00,VWS V14.01,2013-01-11 14:07:00,
2013-01-11 09:12:00,38.1,31.2,30.46,ESE,109,2.0,5.0,76,0.00,,OVC200,0.00,81.00,VWS V14.01,2013-01-11 14:12:00,
2013-01-11 09:17:00,38.0,31.1,30.46,ESE,105,3.0,7.0,76,0.00,,OVC200,0.00,72.00,VWS V14.01,2013-01-11 14:17:00,
2013-01-11 09:22:00,38.2,31.3,30.46,East,87,3.0,7.0,76,0.00,,OVC200,0.00,76.00,VWS V14.01,2013-01-11 14:22:00,
2013-01-11 09:27:00,38.2,31.0,30.46,East,97,2.0,7.0,75,0.00,,OVC200,0.00,77.00,VWS V14.01,2013-01-11 14:27:00,
2013-01-11 09:30:00,38.2,31.0,30.47,East,96,0.0,7.0,75,0.00,,OVC250,0.00,79.00,VWS V14.01,2013-01-11 14:30:00,
2013-01-11 09:32:00,38.2,31.0,30.47,ESE,115,2.0,3.0,75,0.00,,OVC200,0.00,81.00,VWS V14.01,2013-01-11 14:32:00,
2013-01-11 09:37:00,38.4,31.2,30.47,ESE,121,1.0,3.0,75,0.00,,OVC200,0.00,90.00,VWS V14.01,2013-01-11 14:37:00,
2013-01-11 09:42:00,38.5,31.0,30.47,ESE,121,3.0,3.0,74,0.00,,OVC200,0.00,95.00,VWS V14.01,2013-01-11 14:42:00,
2013-01-11 09:47:00,38.6,31.0,30.47,ESE,123,1.0,3.0,74,0.00,,OVC200,0.00,107.00,VWS V14.01,2013-01-11 14:47:00,
2013-01-11 09:52:00,38.6,31.0,30.47,East,98,1.0,5.0,74,0.00,,OVC200,0.00,113.00,VWS V14.01,2013-01-11 14:52:00,
2013-01-11 09:57:00,38.8,31.2,30.47,SE,134,2.0,5.0,74,0.00,,OVC200,0.00,132.00,VWS V14.01,2013-01-11 14:57:00,
2013-01-11 10:00:00,39.0,31.1,30.47,SE,127,1.0,5.0,73,0.00,,OVC250,0.00,134.00,VWS V14.01,2013-01-11 15:00:00,
2013-01-11 10:02:00,39.1,31.2,30.46,SE,127,1.0,2.0,73,0.00,,OVC200,0.00,137.00,VWS V14.01,2013-01-11 15:02:00,
2013-01-11 10:07:00,39.3,31.0,30.46,SE,140,3.0,3.0,72,0.00,,OVC200,0.00,139.00,VWS V14.01,2013-01-11 15:07:00,
2013-01-11 10:12:00,39.3,31.0,30.46,SE,132,2.0,4.0,72,0.00,,OVC200,0.00,132.00,VWS V14.01,2013-01-11 15:12:00,
2013-01-11 10:17:00,39.3,30.7,30.46,East,84,3.0,5.0,71,0.00,,OVC200,0.00,125.00,VWS V14.01,2013-01-11 15:17:00,
2013-01-11 10:22:00,39.1,30.9,30.46,East,88,0.0,5.0,72,0.00,,OVC200,0.00,123.00,VWS V14.01,2013-01-11 15:22:00,
2013-01-11 10:27:00,39.2,31.0,30.45,ENE,73,2.0,5.0,72,0.00,,OVC200,0.00,148.00,VWS V14.01,2013-01-11 15:27:00,
2013-01-11 10:30:00,39.2,30.6,30.45,ENE,69,2.0,5.0,71,0.00,,OVC250,0.00,176.00,VWS V14.01,2013-01-11 15:30:00,
2013-01-11 10:32:00,39.3,30.7,30.45,ESE,105,2.0,5.0,71,0.00,,OVC130,0.00,176.00,VWS V14.01,2013-01-11 15:32:00,
2013-01-11 10:37:00,39.5,30.9,30.45,ESE,109,1.0,5.0,71,0.00,,OVC130,0.00,169.00,VWS V14.01,2013-01-11 15:37:00,
2013-01-11 10:42:00,39.8,31.5,30.45,East,88,2.0,5.0,72,0.00,,OVC130,0.00,156.00,VWS V14.01,2013-01-11 15:42:00,
2013-01-11 10:47:00,40.0,31.4,30.45,ESE,116,3.0,5.0,71,0.00,,OVC130,0.00,151.00,VWS V14.01,2013-01-11 15:47:00,
2013-01-11 10:52:00,40.4,31.4,30.44,ESE,118,0.0,5.0,70,0.00,,OVC130,0.00,151.00,VWS V14.01,2013-01-11 15:52:00,
2013-01-11 10:57:00,40.5,31.5,30.43,ESE,109,1.0,5.0,70,0.00,,OVC130,0.00,137.00,VWS V14.01,2013-01-11 15:57:00,
2013-01-11 11:00:00,40.5,31.5,30.43,ESE,109,3.0,5.0,70,0.00,,OVC250,0.00,130.00,VWS V14.01,2013-01-11 16:00:00,
2013-01-11 11:02:00,40.5,31.5,30.43,ESE,109,1.0,3.0,70,0.00,,OVC130,0.00,109.00,VWS V14.01,2013-01-11 16:02:00,
2013-01-11 11:07:00,40.4,31.4,30.42,East,82,5.0,5.0,70,0.00,,OVC130,0.00,114.00,VWS V14.01,2013-01-11 16:07:00,
2013-01-11 11:12:00,40.4,31.4,30.42,ENE,76,5.0,5.0,70,0.00,,OVC130,0.00,144.00,VWS V14.01,2013-01-11 16:12:00,
2013-01-11 11:17:00,40.1,31.1,30.41,NE,54,6.0,8.0,70,0.00,,OVC130,0.00,139.00,VWS V14.01,2013-01-11 16:17:00,
2013-01-11 11:22:00,40.1,31.1,30.41,ENE,78,2.0,8.0,70,0.00,,OVC130,0.00,137.00,VWS V14.01,2013-01-11 16:22:00,
2013-01-11 11:27:00,40.1,31.5,30.41,East,84,2.0,8.0,71,0.00,,OVC130,0.00,130.00,VWS V14.01,2013-01-11 16:27:00,
2013-01-11 11:30:00,40.3,31.7,30.41,East,84,0.0,8.0,71,0.00,,OVC250,0.00,107.00,VWS V14.01,2013-01-11 16:30:00,
2013-01-11 11:32:00,40.4,31.8,30.41,East,82,3.0,3.0,71,0.00,,OVC250,0.00,98.00,VWS V14.01,2013-01-11 16:32:00,
2013-01-11 11:37:00,40.4,31.8,30.40,East,80,2.0,3.0,71,0.00,,OVC250,0.00,139.00,VWS V14.01,2013-01-11 16:37:00,
2013-01-11 11:42:00,40.6,32.0,30.40,East,80,1.0,3.0,71,0.00,,OVC250,0.00,181.00,VWS V14.01,2013-01-11 16:42:00,
2013-01-11 11:47:00,40.7,32.0,30.39,ENE,59,3.0,4.0,71,0.00,,OVC250,0.00,171.00,VWS V14.01,2013-01-11 16:47:00,
2013-01-11 11:52:00,40.7,31.7,30.39,NE,52,0.0,4.0,70,0.00,,OVC250,0.00,104.00,VWS V14.01,2013-01-11 16:52:00,
2013-01-11 11:57:00,40.6,31.6,30.39,ENE,74,3.0,5.0,70,0.00,,OVC250,0.00,141.00,VWS V14.01,2013-01-11 16:57:00,
2013-01-11 12:00:00,40.5,31.9,30.38,ENE,61,4.0,5.0,71,0.00,,OVC250,0.00,151.00,VWS V14.01,2013-01-11 17:00:00,
2013-01-11 12:02:00,40.5,31.9,30.38,East,87,5.0,5.0,71,0.00,,OVC250,0.00,156.00,VWS V14.01,2013-01-11 17:02:00,
2013-01-11 12:07:00,40.6,32.0,30.36,ENE,70,5.0,7.0,71,0.00,,OVC250,0.00,178.00,VWS V14.01,2013-01-11 17:07:00,
2013-01-11 12:12:00,40.6,32.0,30.36,SE,136,2.0,8.0,71,0.00,,OVC250,0.00,179.00,VWS V14.01,2013-01-11 17:12:00,
2013-01-11 12:17:00,40.9,32.2,30.36,SE,128,2.0,8.0,71,0.00,,OVC250,0.00,163.00,VWS V14.01,2013-01-11 17:17:00,
2013-01-11 12:22:00,41.5,32.8,30.35,SE,146,2.0,8.0,71,0.00,,OVC250,0.00,135.00,VWS V14.01,2013-01-11 17:22:00,
2013-01-11 12:27:00,41.6,32.6,30.35,ENE,57,5.0,8.0,70,0.00,,OVC250,0.00,98.00,VWS V14.01,2013-01-11 17:27:00,
2013-01-11 12:30:00,41.4,32.4,30.34,ENE,63,5.0,8.0,70,0.00,,OVC250,0.00,90.00,VWS V14.01,2013-01-11 17:30:00,
2013-01-11 12:32:00,41.3,32.6,30.34,ENE,67,4.0,6.0,71,0.00,,OVC210,0.00,81.00,VWS V14.01,2013-01-11 17:32:00,
2013-01-11 12:37:00,41.1,32.4,30.35,East,84,2.0,6.0,71,0.00,,OVC210,0.00,65.00,VWS V14.01,2013-01-11 17:37:00,
2013-01-11 12:42:00,41.1,32.8,30.36,East,82,0.0,6.0,72,0.00,,OVC210,0.00,91.00,VWS V14.01,2013-01-11 17:42:00,
2013-01-11 12:47:00,41.3,33.3,30.36,ENE,65,2.0,6.0,73,0.00,,OVC210,0.00,141.00,VWS V14.01,2013-01-11 17:47:00,
2013-01-11 12:52:00,41.2,32.9,30.35,ENE,64,3.0,7.0,72,0.00,,OVC210,0.00,156.00,VWS V14.01,2013-01-11 17:52:00,
2013-01-11 12:57:00,41.1,32.8,30.36,ENE,65,2.0,7.0,72,0.00,,OVC210,0.00,118.00,VWS V14.01,2013-01-11 17:57:00,
2013-01-11 13:00:00,41.1,33.1,30.35,ENE,63,5.0,7.0,73,0.00,,OVC250,0.00,142.00,VWS V14.01,2013-01-11 18:00:00,
2013-01-11 13:02:00,41.1,33.1,30.35,NE,51,2.0,7.0,73,0.00,,OVC210,0.00,139.00,VWS V14.01,2013-01-11 18:02:00,
2013-01-11 13:07:00,41.0,33.4,30.35,ENE,65,3.0,7.0,74,0.00,,OVC210,0.00,98.00,VWS V14.01,2013-01-11 18:07:00,
2013-01-11 13:12:00,41.0,33.7,30.34,ENE,59,3.0,7.0,75,0.00,,OVC210,0.00,100.00,VWS V14.01,2013-01-11 18:12:00,
2013-01-11 13:17:00,40.9,33.6,30.34,East,79,2.0,7.0,75,0.00,,OVC210,0.00,53.00,VWS V14.01,2013-01-11 18:17:00,
2013-01-11 13:22:00,40.9,33.6,30.35,ENE,59,1.0,7.0,75,0.00,,OVC210,0.00,44.00,VWS V14.01,2013-01-11 18:22:00,
2013-01-11 13:27:00,40.7,33.7,30.34,East,80,3.0,7.0,76,0.00,,OVC210,0.00,42.00,VWS V14.01,2013-01-11 18:27:00,
2013-01-11 13:30:00,40.7,34.1,30.34,ENE,78,1.0,7.0,77,0.00,,OVC250,0.00,40.00,VWS V14.01,2013-01-11 18:30:00,
2013-01-11 13:32:00,40.7,34.1,30.34,East,98,5.0,5.0,77,0.00,,OVC110,0.00,40.00,VWS V14.01,2013-01-11 18:32:00,
2013-01-11 13:37:00,40.5,34.2,30.34,ENE,71,2.0,6.0,78,0.00,,OVC110,0.00,37.00,VWS V14.01,2013-01-11 18:37:00,
2013-01-11 13:42:00,40.3,34.3,30.34,East,79,1.0,6.0,79,0.00,,OVC110,0.00,28.00,VWS V14.01,2013-01-11 18:42:00,
2013-01-11 13:47:00,40.2,34.5,30.34,East,79,2.0,6.0,80,0.00,,OVC110,0.00,37.00,VWS V14.01,2013-01-11 18:47:00,
2013-01-11 13:52:00,40.1,34.8,30.34,ENE,75,3.0,6.0,81,0.00,,OVC110,0.00,46.00,VWS V14.01,2013-01-11 18:52:00,
2013-01-11 13:57:00,40.1,35.1,30.34,ENE,71,3.0,6.0,82,0.00,,OVC110,0.00,51.00,VWS V14.01,2013-01-11 18:57:00,
2013-01-11 14:00:00,40.0,35.0,30.33,East,80,2.0,6.0,82,0.00,,OVC250,0.00,49.00,VWS V14.01,2013-01-11 19:00:00,
2013-01-11 14:02:00,40.0,35.0,30.33,ENE,75,1.0,4.0,82,0.00,,OVC110,0.00,44.00,VWS V14.01,2013-01-11 19:02:00,
2013-01-11 14:07:00,40.0,35.6,30.33,ENE,75,0.0,4.0,84,0.00,,OVC110,0.00,58.00,VWS V14.01,2013-01-11 19:07:00,
2013-01-11 14:12:00,40.0,35.6,30.33,ENE,73,1.0,4.0,84,0.00,,OVC110,0.00,49.00,VWS V14.01,2013-01-11 19:12:00,
2013-01-11 14:17:00,40.0,35.9,30.32,ENE,69,4.0,5.0,85,0.00,,OVC110,0.00,40.00,VWS V14.01,2013-01-11 19:17:00,
2013-01-11 14:22:00,39.9,35.8,30.33,East,80,5.0,5.0,85,0.00,,OVC110,0.00,28.00,VWS V14.01,2013-01-11 19:22:00,
2013-01-11 14:27:00,39.7,35.6,30.32,ENE,71,2.0,5.0,85,0.00,,OVC110,0.00,30.00,VWS V14.01,2013-01-11 19:27:00,
2013-01-11 14:30:00,39.7,35.6,30.32,ENE,66,2.0,5.0,85,0.00,,OVC250,0.00,46.00,VWS V14.01,2013-01-11 19:30:00,
2013-01-11 14:32:00,39.8,36.0,30.32,ENE,66,2.0,2.0,86,0.00,,OVC065,0.00,51.00,VWS V14.01,2013-01-11 19:32:00,
2013-01-11 14:37:00,39.8,35.7,30.33,East,79,5.0,6.0,85,0.00,,OVC065,0.00,51.00,VWS V14.01,2013-01-11 19:37:00,
2013-01-11 14:42:00,39.7,35.6,30.32,ENE,75,2.0,7.0,85,0.00,,OVC065,0.00,60.00,VWS V14.01,2013-01-11 19:42:00,
2013-01-11 14:47:00,39.7,35.6,30.32,ESE,109,2.0,7.0,85,0.00,,OVC065,0.00,53.00,VWS V14.01,2013-01-11 19:47:00,
2013-01-11 14:52:00,39.8,35.7,30.32,East,92,3.0,7.0,85,0.00,,OVC065,0.00,49.00,VWS V14.01,2013-01-11 19:52:00,
2013-01-11 14:57:00,39.9,35.8,30.31,South,171,0.0,7.0,85,0.00,,OVC065,0.00,42.00,VWS V14.01,2013-01-11 19:57:00,
2013-01-11 15:00:00,40.0,35.9,30.31,East,85,5.0,7.0,85,0.00,,OVC250,0.00,47.00,VWS V14.01,2013-01-11 20:00:00,
2013-01-11 15:02:00,40.0,35.9,30.31,ESE,112,3.0,5.0,85,0.00,,OVC065,0.00,47.00,VWS V14.01,2013-01-11 20:02:00,
2013-01-11 15:07:00,40.0,35.9,30.31,East,79,0.0,5.0,85,0.00,,OVC065,0.00,21.00,VWS V14.01,2013-01-11 20:07:00,
2013-01-11 15:12:00,40.0,35.9,30.31,East,79,2.0,5.0,85,0.00,,OVC065,0.00,18.00,VWS V14.01,2013-01-11 20:12:00,
2013-01-11 15:17:00,40.1,36.0,30.31,ESE,102,0.0,5.0,85,0.00,,OVC065,0.00,16.00,VWS V14.01,2013-01-11 20:17:00,
2013-01-11 15:22:00,40.2,35.8,30.31,ENE,63,1.0,5.0,84,0.00,,OVC065,0.00,12.00,VWS V14.01,2013-01-11 20:22:00,
2013-01-11 15:27:00,40.2,35.8,30.30,ENE,77,3.0,5.0,84,0.00,,OVC065,0.00,14.00,VWS V14.01,2013-01-11 20:27:00,
2013-01-11 15:30:00,40.0,35.9,30.30,ESE,108,3.0,5.0,85,0.00,,OVC250,0.00,12.00,VWS V14.01,2013-01-11 20:30:00,
2013-01-11 15:32:00,40.0,35.9,30.30,ESE,108,3.0,3.0,85,0.00,,OVC055,0.00,12.00,VWS V14.01,2013-01-11 20:32:00,
2013-01-11 15:37:00,39.8,36.0,30.30,ESE,105,3.0,7.0,86,0.00,,OVC055,0.00,14.00,VWS V14.01,2013-01-11 20:37:00,
2013-01-11 15:42:00,39.8,36.2,30.30,SE,138,1.0,7.0,87,0.00,,OVC055,0.00,14.00,VWS V14.01,2013-01-11 20:42:00,
2013-01-11 15:47:00,39.6,36.1,30.29,East,98,0.0,7.0,87,0.00,,OVC055,0.00,16.00,VWS V14.01,2013-01-11 20:47:00,
2013-01-11 15:52:00,39.6,36.3,30.28,East,96,3.0,7.0,88,0.00,,OVC055,0.00,9.00,VWS V14.01,2013-01-11 20:52:00,
2013-01-11 15:57:00,39.4,36.4,30.28,ESE,105,1.0,7.0,89,0.00,,OVC055,0.00,12.00,VWS V14.01,2013-01-11 20:57:00,
2013-01-11 16:00:00,39.4,36.4,30.28,East,94,0.0,7.0,89,0.00,,OVC250,0.00,18.00,VWS V14.01,2013-01-11 21:00:00,
2013-01-11 16:02:00,39.4,36.4,30.28,East,94,0.0,2.0,89,0.01,,OVC055,0.01,16.00,VWS V14.01,2013-01-11 21:02:00,
2013-01-11 16:07:00,39.4,36.7,30.28,East,94,0.0,3.0,90,0.01,,OVC055,0.01,7.00,VWS V14.01,2013-01-11 21:07:00,
2013-01-11 16:12:00,39.4,36.7,30.28,SSW,200,3.0,6.0,90,0.01,,OVC055,0.01,5.00,VWS V14.01,2013-01-11 21:12:00,
2013-01-11 16:17:00,39.4,36.7,30.27,SE,134,3.0,6.0,90,0.01,,OVC055,0.01,0.00,VWS V14.01,2013-01-11 21:17:00,
2013-01-11 16:22:00,39.4,37.0,30.28,ENE,74,1.0,6.0,91,0.01,,OVC055,0.01,0.00,VWS V14.01,2013-01-11 21:22:00,
2013-01-11 16:27:00,39.4,37.0,30.28,ENE,74,1.0,6.0,91,0.01,,OVC055,0.01,0.00,VWS V14.01,2013-01-11 21:27:00,
2013-01-11 16:30:00,39.4,37.0,30.28,ENE,74,0.0,6.0,91,0.01,,OVC250,0.01,0.00,VWS V14.01,2013-01-11 21:30:00,
2013-01-11 16:32:00,39.4,37.0,30.28,ENE,74,0.0,0.0,91,0.01,,-RA,0.01,0.00,VWS V14.01,2013-01-11 21:32:00,
2013-01-11 16:37:00,39.4,37.0,30.27,ENE,74,0.0,1.0,91,0.01,,-RA,0.01,0.00,VWS V14.01,2013-01-11 21:37:00,
2013-01-11 16:42:00,39.5,37.1,30.26,ENE,74,1.0,2.0,91,0.01,,-RA,0.01,0.00,VWS V14.01,2013-01-11 21:42:00,
2013-01-11 16:47:00,39.4,37.0,30.26,ESE,107,3.0,3.0,91,0.01,,-RA,0.01,0.00,VWS V14.01,2013-01-11 21:47:00,
2013-01-11 16:52:00,39.4,37.3,30.26,ESE,108,1.0,3.0,92,0.01,,-RA,0.01,0.00,VWS V14.01,2013-01-11 21:52:00,
2013-01-11 16:57:00,39.4,37.3,30.26,ESE,108,0.0,3.0,92,0.01,,-RA,0.01,0.00,VWS V14.01,2013-01-11 21:57:00,
2013-01-11 17:00:00,39.5,37.4,30.26,ESE,110,0.0,3.0,92,0.01,,OVC250,0.01,0.00,VWS V14.01,2013-01-11 22:00:00,
2013-01-11 17:02:00,39.5,37.4,30.25,ESE,110,0.0,1.0,92,0.01,,-RA,0.01,0.00,VWS V14.01,2013-01-11 22:02:00,
2013-01-11 17:07:00,39.6,37.5,30.25,ESE,117,0.0,1.0,92,0.01,,-RA,0.01,0.00,VWS V14.01,2013-01-11 22:07:00,
2013-01-11 17:12:00,39.6,37.5,30.25,ESE,117,0.0,1.0,92,0.01,,-RA,0.01,0.00,VWS V14.01,2013-01-11 22:12:00,
2013-01-11 17:17:00,39.5,37.4,30.25,ESE,117,0.0,1.0,92,0.01,,-RA,0.01,0.00,VWS V14.01,2013-01-11 22:17:00,
2013-01-11 17:22:00,39.6,37.5,30.25,ESE,117,0.0,1.0,92,0.02,,-RA,0.02,0.00,VWS V14.01,2013-01-11 22:22:00,
2013-01-11 17:27:00,39.7,37.8,30.25,ESE,117,0.0,1.0,93,0.02,,-RA,0.02,0.00,VWS V14.01,2013-01-11 22:27:00,
2013-01-11 17:30:00,39.6,37.5,30.25,ESE,117,0.0,1.0,92,0.02,,OVC250,0.02,0.00,VWS V14.01,2013-01-11 22:30:00,
2013-01-11 17:32:00,39.6,37.5,30.25,ESE,117,0.0,0.0,92,0.01,,-RA,0.02,0.00,VWS V14.01,2013-01-11 22:32:00,
2013-01-11 17:37:00,39.6,37.8,30.25,ESE,117,0.0,0.0,93,0.01,,-RA,0.02,0.00,VWS V14.01,2013-01-11 22:37:00,
2013-01-11 17:42:00,39.6,37.8,30.24,ESE,117,0.0,1.0,93,0.01,,-RA,0.02,0.00,VWS V14.01,2013-01-11 22:42:00,
2013-01-11 17:47:00,39.6,37.8,30.24,ESE,117,0.0,1.0,93,0.02,,-RA,0.03,0.00,VWS V14.01,2013-01-11 22:47:00,
2013-01-11 17:52:00,39.7,37.8,30.24,ESE,117,0.0,1.0,93,0.03,,-RA,0.04,0.00,VWS V14.01,2013-01-11 22:52:00,
2013-01-11 17:57:00,39.7,37.8,30.23,ESE,117,0.0,1.0,93,0.03,,-RA,0.04,0.00,VWS V14.01,2013-01-11 22:57:00,
2013-01-11 18:00:00,39.7,38.1,30.23,ESE,117,0.0,1.0,94,0.03,,OVC250,0.04,0.00,VWS V14.01,2013-01-11 23:00:00,
2013-01-11 18:02:00,39.7,38.1,30.23,ESE,117,0.0,1.0,94,0.03,,RA,0.04,0.00,VWS V14.01,2013-01-11 23:02:00,
2013-01-11 18:07:00,39.8,38.2,30.23,ESE,117,0.0,1.0,94,0.03,,RA,0.04,0.00,VWS V14.01,2013-01-11 23:07:00,
2013-01-11 18:12:00,39.9,38.3,30.23,ESE,117,0.0,1.0,94,0.04,,RA,0.05,0.00,VWS V14.01,2013-01-11 23:12:00,
2013-01-11 18:17:00,39.9,38.3,30.23,ESE,117,0.0,1.0,94,0.05,,RA,0.06,0.00,VWS V14.01,2013-01-11 23:17:00,
2013-01-11 18:22:00,39.9,38.3,30.22,ESE,117,0.0,1.0,94,0.06,,RA,0.07,0.00,VWS V14.01,2013-01-11 23:22:00,
2013-01-11 18:27:00,39.9,38.3,30.22,ESE,117,0.0,1.0,94,0.06,,RA,0.07,0.00,VWS V14.01,2013-01-11 23:27:00,
2013-01-11 18:30:00,40.0,38.4,30.21,ESE,117,0.0,1.0,94,0.07,,OVC250,0.08,0.00,VWS V14.01,2013-01-11 23:30:00,
2013-01-11 18:32:00,40.0,38.4,30.21,ESE,117,0.0,0.0,94,0.06,,RA,0.08,0.00,VWS V14.01,2013-01-11 23:32:00,
2013-01-11 18:37:00,40.1,38.5,30.21,ESE,117,0.0,0.0,94,0.06,,RA,0.08,0.00,VWS V14.01,2013-01-11 23:37:00,
2013-01-11 18:42:00,40.1,38.5,30.21,ESE,117,0.0,0.0,94,0.07,,RA,0.09,0.00,VWS V14.01,2013-01-11 23:42:00,
2013-01-11 18:47:00,40.1,38.8,30.21,ESE,117,0.0,0.0,95,0.07,,RA,0.09,0.00,VWS V14.01,2013-01-11 23:47:00,
2013-01-11 18:52:00,40.2,38.9,30.20,ESE,117,0.0,0.0,95,0.08,,RA,0.10,0.00,VWS V14.01,2013-01-11 23:52:00,
2013-01-11 18:57:00,40.1,38.8,30.20,ESE,117,0.0,0.0,95,0.10,,RA,0.12,0.00,VWS V14.01,2013-01-11 23:57:00,
2013-01-11 19:00:00,40.1,38.8,30.20,ESE,117,0.0,0.0,95,0.10,,OVC250,0.12,0.00,VWS V14.01,2013-01-12 00:00:00,
2013-01-11 19:02:00,40.1,38.8,30.19,ESE,117,0.0,0.0,95,0.09,,-RA,0.13,0.00,VWS V14.01,2013-01-12 00:02:00,
2013-01-11 19:07:00,40.1,38.8,30.20,ESE,117,0.0,0.0,95,0.10,,-RA,0.14,0.00,VWS V14.01,2013-01-12 00:07:00,
2013-01-11 19:12:00,40.2,38.9,30.19,ESE,117,0.0,0.0,95,0.11,,-RA,0.15,0.00,VWS V14.01,2013-01-12 00:12:00,
2013-01-11 19:17:00,40.3,39.0,30.19,ESE,117,0.0,0.0,95,0.12,,-RA,0.16,0.00,VWS V14.01,2013-01-12 00:17:00,
2013-01-11 19:22:00,40.4,39.1,30.18,ESE,117,0.0,0.0,95,0.12,,-RA,0.16,0.00,VWS V14.01,2013-01-12 00:22:00,
2013-01-11 19:27:00,40.5,39.2,30.18,ESE,117,0.0,0.0,95,0.13,,-RA,0.17,0.00,VWS V14.01,2013-01-12 00:27:00,
2013-01-11 19:30:00,40.6,39.3,30.18,ESE,117,0.0,0.0,95,0.14,,OVC250,0.18,0.00,VWS V14.01,2013-01-12 00:30:00,
2013-01-11 19:32:00,40.5,39.2,30.18,ESE,117,0.0,0.0,95,0.11,,RA,0.19,0.00,VWS V14.01,2013-01-12 00:32:00,
2013-01-11 19:37:00,40.5,39.2,30.18,ESE,117,0.0,0.0,95,0.12,,RA,0.20,0.00,VWS V14.01,2013-01-12 00:37:00,
2013-01-11 19:42:00,40.6,39.3,30.18,ESE,117,0.0,0.0,95,0.13,,RA,0.21,0.00,VWS V14.01,2013-01-12 00:42:00,
2013-01-11 19:47:00,40.6,39.3,30.19,ESE,117,0.0,0.0,95,0.14,,RA,0.22,0.00,VWS V14.01,2013-01-12 00:47:00,
2013-01-11 19:52:00,40.7,39.4,30.19,ESE,117,0.0,0.0,95,0.15,,RA,0.23,0.00,VWS V14.01,2013-01-12 00:52:00,
2013-01-11 19:57:00,40.7,39.7,30.19,ESE,117,0.0,0.0,96,0.16,,RA,0.24,0.00,VWS V14.01,2013-01-12 00:57:00,
2013-01-11 20:00:00,40.8,39.8,30.19,ESE,117,0.0,0.0,96,0.18,,OVC250,0.26,0.00,VWS V14.01,2013-01-12 01:00:00,
2013-01-11 20:02:00,40.8,39.8,30.19,ESE,117,0.0,0.0,96,0.14,,RA,0.26,0.00,VWS V14.01,2013-01-12 01:02:00,
2013-01-11 20:07:00,40.9,39.8,30.20,ESE,117,0.0,0.0,96,0.16,,RA,0.28,0.00,VWS V14.01,2013-01-12 01:07:00,
2013-01-11 20:12:00,41.0,40.0,30.21,ESE,117,0.0,0.0,96,0.19,,RA,0.31,0.00,VWS V14.01,2013-01-12 01:12:00,
2013-01-11 20:17:00,41.1,40.0,30.21,ESE,117,0.0,0.0,96,0.21,,RA,0.33,0.00,VWS V14.01,2013-01-12 01:17:00,
2013-01-11 20:22:00,41.3,40.2,30.20,ESE,117,0.0,0.0,96,0.24,,RA,0.36,0.00,VWS V14.01,2013-01-12 01:22:00,
2013-01-11 20:27:00,41.4,40.3,30.20,ESE,117,0.0,0.0,96,0.26,,RA,0.38,0.00,VWS V14.01,2013-01-12 01:27:00,
2013-01-11 20:30:00,41.4,40.3,30.20,ESE,117,0.0,0.0,96,0.26,,OVC250,0.38,0.00,VWS V14.01,2013-01-12 01:30:00,
2013-01-11 20:32:00,41.5,40.5,30.20,ESE,117,0.0,0.0,96,0.20,,RA,0.38,0.00,VWS V14.01,2013-01-12 01:32:00,
2013-01-11 20:37:00,41.6,40.5,30.20,ESE,117,0.0,0.0,96,0.21,,RA,0.39,0.00,VWS V14.01,2013-01-12 01:37:00,
2013-01-11 20:42:00,41.7,40.7,30.19,ESE,117,0.0,0.0,96,0.22,,RA,0.40,0.00,VWS V14.01,2013-01-12 01:42:00,
2013-01-11 20:47:00,41.8,40.8,30.19,ESE,117,0.0,0.0,96,0.22,,RA,0.40,0.00,VWS V14.01,2013-01-12 01:47:00,
2013-01-11 20:52:00,41.8,40.8,30.19,ESE,117,0.0,0.0,96,0.22,,RA,0.40,0.00,VWS V14.01,2013-01-12 01:52:00,
2013-01-11 20:57:00,41.9,40.8,30.18,ESE,117,0.0,0.0,96,0.22,,RA,0.40,0.00,VWS V14.01,2013-01-12 01:57:00,
2013-01-11 21:00:00,41.9,40.8,30.18,ESE,117,0.0,0.0,96,0.22,,OVC250,0.40,0.00,VWS V14.01,2013-01-12 02:00:00,
2013-01-11 21:02:00,41.9,40.8,30.18,ESE,117,0.0,0.0,96,0.15,,-RA,0.41,0.00,VWS V14.01,2013-01-12 02:02:00,
2013-01-11 21:07:00,41.9,40.8,30.18,ESE,117,0.0,0.0,96,0.15,,-RA,0.41,0.00,VWS V14.01,2013-01-12 02:07:00,
2013-01-11 21:12:00,41.9,40.8,30.17,ESE,117,0.0,0.0,96,0.15,,-RA,0.41,0.00,VWS V14.01,2013-01-12 02:12:00,
2013-01-11 21:17:00,42.0,40.9,30.17,ESE,117,0.0,0.0,96,0.15,,-RA,0.41,0.00,VWS V14.01,2013-01-12 02:17:00,
2013-01-11 21:22:00,42.0,40.9,30.17,ESE,117,0.0,0.0,96,0.15,,-RA,0.41,0.00,VWS V14.01,2013-01-12 02:22:00,
2013-01-11 21:27:00,42.0,40.9,30.17,ESE,117,0.0,0.0,96,0.15,,-RA,0.41,0.00,VWS V14.01,2013-01-12 02:27:00,
2013-01-11 21:30:00,42.0,40.9,30.17,ESE,117,0.0,0.0,96,0.15,,OVC250,0.41,0.00,VWS V14.01,2013-01-12 02:30:00,
2013-01-11 21:32:00,42.0,40.9,30.17,ESE,117,0.0,0.0,96,0.04,,-RA,0.42,0.00,VWS V14.01,2013-01-12 02:32:00,
2013-01-11 21:37:00,42.0,40.9,30.17,ESE,117,0.0,0.0,96,0.04,,-RA,0.42,0.00,VWS V14.01,2013-01-12 02:37:00,
2013-01-11 21:42:00,42.0,40.9,30.16,ESE,117,0.0,0.0,96,0.05,,-RA,0.43,0.00,VWS V14.01,2013-01-12 02:42:00,
2013-01-11 21:47:00,42.0,40.9,30.17,ESE,117,0.0,0.0,96,0.06,,-RA,0.44,0.00,VWS V14.01,2013-01-12 02:47:00,
2013-01-11 21:52:00,42.0,40.9,30.16,ESE,117,0.0,2.0,96,0.08,,-RA,0.46,0.00,VWS V14.01,2013-01-12 02:52:00,
2013-01-11 21:57:00,42.3,41.2,30.16,ESE,121,1.0,2.0,96,0.08,,-RA,0.46,0.00,VWS V14.01,2013-01-12 02:57:00,
2013-01-11 22:00:00,42.5,41.4,30.15,SE,140,1.0,2.0,96,0.08,,OVC250,0.46,0.00,VWS V14.01,2013-01-12 03:00:00,
2013-01-11 22:02:00,42.5,41.4,30.15,SE,140,1.0,2.0,96,0.06,,-RA,0.46,0.00,VWS V14.01,2013-01-12 03:02:00,
2013-01-11 22:07:00,42.7,41.6,30.15,SE,140,1.0,2.0,96,0.06,,-RA,0.46,0.00,VWS V14.01,2013-01-12 03:07:00,
2013-01-11 22:12:00,43.2,42.4,30.15,SE,140,0.0,2.0,97,0.07,,-RA,0.47,0.00,VWS V14.01,2013-01-12 03:12:00,
2013-01-11 22:17:00,43.8,43.0,30.15,SE,128,0.0,2.0,97,0.07,,-RA,0.47,0.00,VWS V14.01,2013-01-12 03:17:00,
2013-01-11 22:22:00,44.0,43.2,30.15,SE,128,0.0,2.0,97,0.09,,-RA,0.49,0.00,VWS V14.01,2013-01-12 03:22:00,
2013-01-11 22:27:00,44.0,43.2,30.14,SE,128,0.0,2.0,97,0.10,,-RA,0.50,0.00,VWS V14.01,2013-01-12 03:27:00,
2013-01-11 22:30:00,43.9,43.1,30.14,SE,128,0.0,2.0,97,0.10,,OVC250,0.50,0.00,VWS V14.01,2013-01-12 03:30:00,
2013-01-11 22:32:00,43.9,43.1,30.14,SE,128,0.0,2.0,97,0.10,,-RA,0.50,0.00,VWS V14.01,2013-01-12 03:32:00,
2013-01-11 22:37:00,43.8,43.0,30.14,SE,128,0.0,0.0,97,0.09,,-RA,0.50,0.00,VWS V14.01,2013-01-12 03:37:00,
2013-01-11 22:42:00,43.7,42.9,30.14,SE,128,1.0,2.0,97,0.10,,-RA,0.51,0.00,VWS V14.01,2013-01-12 03:42:00,
2013-01-11 22:47:00,43.7,42.9,30.14,SE,128,0.0,2.0,97,0.10,,-RA,0.51,0.00,VWS V14.01,2013-01-12 03:47:00,
2013-01-11 22:52:00,43.8,43.0,30.14,SE,128,0.0,3.0,97,0.11,,-RA,0.52,0.00,VWS V14.01,2013-01-12 03:52:00,
2013-01-11 22:57:00,43.8,43.0,30.13,SE,128,0.0,3.0,97,0.11,,-RA,0.52,0.00,VWS V14.01,2013-01-12 03:57:00,
2013-01-11 23:00:00,43.9,43.1,30.13,SE,128,0.0,3.0,97,0.12,,OVC250,0.53,0.00,VWS V14.01,2013-01-12 04:00:00,
2013-01-11 23:02:00,43.9,43.1,30.13,SE,128,0.0,1.0,97,0.07,,-RA,0.53,0.00,VWS V14.01,2013-01-12 04:02:00,
2013-01-11 23:07:00,44.0,43.2,30.12,SE,128,0.0,2.0,97,0.07,,-RA,0.53,0.00,VWS V14.01,2013-01-12 04:07:00,
2013-01-11 23:12:00,44.1,43.3,30.12,SE,128,0.0,2.0,97,0.07,,-RA,0.53,0.00,VWS V14.01,2013-01-12 04:12:00,
2013-01-11 23:17:00,44.1,43.3,30.12,SE,128,0.0,2.0,97,0.07,,-RA,0.53,0.00,VWS V14.01,2013-01-12 04:17:00,
2013-01-11 23:30:00,44.2,43.4,30.12,SE,135,0.0,2.0,97,0.07,,OVC250,0.53,0.00,VWS V14.01,2013-01-12 04:30:00,